Location: Unspecified
(50.7693°N, 0.0000°E)
Time: 04:13:35
(UTC+00:00)

ISS - Visible Passes

Search period start: 26 May 2019 00:00
Search period end: 05 June 2019 00:00
Orbit: 408 x 418 km, 51.6° (Epoch: 26 May)

Date Brightness Start Highest point End Pass type
(mag) Time Alt. Az. Time Alt. Az. Time Alt. Az.
26 May -3.5 20:35:18 10° W 20:38:39 75° N 20:42:00 10° E visible
26 May -3.9 22:12:02 10° WNW 22:15:23 76° SSW 22:17:12 25° ESE visible
26 May -1.6 23:49:04 10° W 23:50:01 15° WSW 23:50:01 15° WSW visible
27 May -3.8 21:22:33 10° WNW 21:25:55 88° NNE 21:29:16 10° ESE visible
27 May -2.8 22:59:22 10° W 23:02:06 31° SW 23:02:06 31° SW visible
28 May -3.4 22:09:46 10° W 22:13:00 45° SSW 22:14:12 30° SSE visible
29 May -3.7 21:20:14 10° WNW 21:23:33 62° SSW 21:26:19 14° ESE visible
29 May -1.7 22:57:32 10° W 22:59:08 16° SW 22:59:08 16° SW visible
30 May -2.4 22:07:38 10° W 22:10:26 24° SW 22:11:16 22° S visible
31 May -2.9 21:17:56 10° W 21:21:02 35° SSW 21:23:27 15° SSE visible
01 Jun -1.5 22:06:11 10° WSW 22:07:40 12° SW 22:08:27 12° SSW visible
02 Jun -1.8 21:15:55 10° W 21:18:20 19° SW 21:20:41 10° S visible
